Home > Time Zones > World Clock > Weather > Norway > Sola > Past weeks

Flag for Norway Weather past 2 weeks in Sola, Norway

Now
52 °F

Passing clouds.


Feels Like: 50 °F
Forecast: 46 / 54 °F
Wind: 5 mph from Northwest

Location: Stavanger / Sola

Current Time: May 30, 2015 at 7:39:35 PM

Latest Report: May 30, 2015 at 7:00 PM


Visibility: 16 mi

Pressure: 29.63 "Hg

Humidity: 66%

Dew point: 41 °F

Location of SolaLocation

Historic Weather in Sola — Graph

°F

Sola temperature yesterday

Maximum temperature yesterday: 53 °F (at 11:00 AM)
Minimum temperature yesterday: 42 °F (at 4:00 AM)
Average temperature yesterday: 48 °F

Past Weeks' High & Low Weather Summary

 TemperatureHumidityPressure
High54 °F (May 18, 1:00 PM)97% (May 22, 7:00 AM)30.17 "Hg (May 22, 7:00 AM)
Low39 °F (May 24, 2:00 AM)48% (May 18, 6:00 PM)29.23 "Hg (May 19, 7:00 AM)
Average48 °F80%29.82 "Hg
* Reported May 15 6:00 PM — May 30 6:00 PM, Sola, Weather by CustomWeather, © 2015

Note: Actual official high and low records may vary slightly from our data, if they occured in-between our weather recording intervals... More about our weather records

Advertising

Sola weather history for previous 24 hours

 ConditionsComfort  
Time TempWeatherWind HumidityBarometerVisibility
6:00 PM
Sat, May 30
52 °FSunny.3 mph66%29.63 "Hg19 mi
5:00 PM52 °FSunny.5 mph65%29.62 "Hg22 mi
4:00 PM52 °FPassing clouds.5 mph66%29.62 "Hg19 mi
3:00 PM53 °FSunny.6 mph66%29.61 "Hg19 mi
2:00 PM51 °FSunny.6 mph68%29.60 "Hg17 mi
1:00 PM51 °FPassing clouds.6 mph69%29.59 "Hg19 mi
12:00 PM51 °FPartly sunny.6 mph68%29.59 "Hg19 mi
11:00 AM49 °FScattered clouds.5 mph76%29.58 "Hg19 mi
10:00 AM48 °FPassing clouds.5 mph78%29.57 "Hg25 mi
9:00 AM48 °FScattered clouds.3 mph78%29.56 "Hg19 mi
8:00 AM47 °FSunny.2 mph81%29.56 "Hg22 mi
7:00 AM45 °FSunny.No wind92%29.55 "Hg22 mi
6:00 AM42 °FFog.No wind96%29.55 "Hg1 mi
4:00 AM43 °FOvercast.1 mph92%29.55 "Hg31 mi
3:00 AM44 °FLight rain. Clear.2 mph92%29.56 "Hg10 mi
2:00 AM44 °FClear.1 mph90%29.57 "Hg12 mi
1:00 AM45 °FRain showers. Passing clouds.2 mph90%29.57 "Hg22 mi
12:00 AM44 °FOvercast.2 mph90%29.58 "Hg25 mi
10:00 PM
Fri, May 29
44 °FRain. Overcast.1 mph82%29.58 "Hg2 mi
9:00 PM48 °FScattered clouds.No wind72%29.57 "Hg22 mi
8:00 PM48 °FSunny.5 mph74%29.57 "Hg19 mi
7:00 PM49 °FScattered clouds.5 mph73%29.57 "Hg16 mi
Weather by CustomWeather, © 2015

See weather overviewHow to use our weather pages